Eagle Lake Weather Center

Moon Phase Calendar



Eagle Lake Water Level
Online Cameras

 


      

Current Conditions in Lassen
10/19/2021 6:18:31 PM

48°F
Feels Like 45
Clouds
Humidity
74%
Pressure
29.88"
Wind
5 mph (SSW)
Dew Point
40°F
UV Index
0/10 (Low)
Visibility
6 mi

Hourly Forecast

Date & Time Tue, Oct 19
6:00 PM
Tue, Oct 19
7:00 PM
Tue, Oct 19
8:00 PM
Tue, Oct 19
9:00 PM
Tue, Oct 19
10:00 PM
Tue, Oct 19
11:00 PM
Wed, Oct 20
12:00 AM
Wed, Oct 20
1:00 AM
Wed, Oct 20
2:00 AM
Wed, Oct 20
3:00 AM
Wed, Oct 20
4:00 AM
Wed, Oct 20
5:00 AM
Wed, Oct 20
6:00 AM
Wed, Oct 20
7:00 AM
Wed, Oct 20
8:00 AM
Wed, Oct 20
9:00 AM
Wed, Oct 20
10:00 AM
Wed, Oct 20
11:00 AM
Wed, Oct 20
12:00 PM
Wed, Oct 20
1:00 PM
Wed, Oct 20
2:00 PM
Wed, Oct 20
3:00 PM
Wed, Oct 20
4:00 PM
Wed, Oct 20
5:00 PM
Wed, Oct 20
6:00 PM
Wed, Oct 20
7:00 PM
Wed, Oct 20
8:00 PM
Wed, Oct 20
9:00 PM
Wed, Oct 20
10:00 PM
Wed, Oct 20
11:00 PM
Thu, Oct 21
12:00 AM
Thu, Oct 21
1:00 AM
Thu, Oct 21
2:00 AM
Thu, Oct 21
3:00 AM
Thu, Oct 21
4:00 AM
Thu, Oct 21
5:00 AM
Thu, Oct 21
6:00 AM
Thu, Oct 21
7:00 AM
Thu, Oct 21
8:00 AM
Thu, Oct 21
9:00 AM
Thu, Oct 21
10:00 AM
Thu, Oct 21
11:00 AM
Thu, Oct 21
12:00 PM
Thu, Oct 21
1:00 PM
Thu, Oct 21
2:00 PM
Thu, Oct 21
3:00 PM
Thu, Oct 21
4:00 PM
Thu, Oct 21
5:00 PM
Condition
Clouds

Clouds

Clouds

Clouds

Clouds

Clouds

Clouds

Snow

Rain

Rain

Rain

Clouds

Clouds

Rain

Clouds

Clouds

Clouds

Clouds

Clouds

Clouds

Clouds

Clouds

Clouds

Clouds

Clouds

Clouds

Clouds

Rain

Rain

Rain

Rain

Clouds

Clouds

Clouds

Clouds

Clouds

Clouds

Clouds

Clouds

Clouds

Clouds

Clouds

Clouds

Rain

Rain

Rain

Clouds

Clouds
Temperature 48°F46°F44°F42°F40°F40°F37°F36°F37°F39°F38°F39°F38°F38°F39°F41°F42°F43°F44°F45°F44°F45°F44°F45°F44°F43°F43°F43°F43°F43°F43°F43°F44°F44°F44°F43°F43°F43°F43°F46°F49°F48°F49°F50°F48°F48°F49°F49°F
Feels Like 45°F43°F41°F37°F36°F33°F30°F28°F30°F31°F30°F31°F31°F32°F33°F35°F36°F38°F41°F41°F41°F41°F41°F41°F41°F40°F41°F40°F40°F40°F40°F40°F40°F40°F40°F40°F40°F40°F40°F42°F46°F45°F45°F47°F45°F45°F45°F46°F
Cloudiness 100%100%100%100%100%100%99%100%100%99%99%97%94%86%90%92%94%95%100%100%100%100%100%100%100%100%100%100%100%100%100%100%99%99%99%99%100%100%100%100%100%100%100%100%100%100%100%100%
Visibility 6 mi6 mi6 mi6 mi6 mi6 mi6 mi6 mi6 mi6 mi6 mi6 mi6 mi6 mi6 mi6 mi6 mi6 mi6 mi6 mi6 mi6 mi6 mi6 mi6 mi6 mi6 mi6 mi6 mi5 mi3 mi1 mi6 mi6 mi6 mi6 mi6 mi6 mi6 mi6 mi6 mi6 mi6 mi6 mi6 mi6 mi6 mi6 mi
Precipitation 0%0%0%0%0%2%30%50%45%45%45%45%35%37%41%35%31%27%0%0%2%0%4%4%8%28%32%64%69%73%42%29%29%25%25%21%15%19%26%22%26%26%44%48%52%48%48%52%
Humidity 74%76%76%75%74%71%81%90%91%84%85%86%88%91%88%84%82%82%81%84%89%87%89%82%86%90%92%95%97%98%99%98%96%96%94%94%95%94%95%88%80%87%87%86%94%93%92%94%
Dew Point 40°F38°F36°F34°F33°F30°F30°F31°F33°F33°F33°F33°F33°F34°F34°F35°F36°F36°F38°F39°F40°F40°F40°F39°F39°F39°F39°F40°F41°F41°F41°F41°F41°F41°F41°F40°F40°F40°F40°F41°F42°F43°F43°F45°F44°F45°F45°F46°F
Pressure 29.88"29.88"29.91"29.91"29.94"29.94"29.94"29.97"29.97"29.94"29.97"29.97"30"30.03"30.03"30.03"30.03"30.03"30.03"30.03"30.03"30"30.03"30.03"30.03"30.06"30.06"30.09"30.09"30.09"30.09"30.06"30.06"30.06"30.06"30.06"30.09"30.09"30.09"30.09"30.09"30.09"30.09"30.06"30.09"30.06"30.06"30.03"
Wind Speed 5 mph4.6 mph4.4 mph6.7 mph7 mph11.6 mph10.5 mph9.4 mph10.8 mph13.6 mph14 mph11.4 mph10.2 mph8.1 mph7.9 mph8.9 mph9.4 mph8.8 mph6.4 mph6.3 mph5.9 mph6.6 mph6.6 mph7.7 mph5.6 mph4.8 mph3.4 mph4.4 mph5 mph4.5 mph5 mph5.7 mph5.6 mph6.7 mph6.3 mph6 mph5.5 mph4.7 mph5.5 mph9.3 mph8.4 mph7.4 mph7.7 mph8 mph6 mph5.8 mph8.1 mph6 mph
Wind
Direction
208°
SSW
220°
SW
189°
S
194°
SSW
187°
S
193°
SSW
186°
S
176°
S
181°
S
189°
S
196°
SSW
199°
SSW
202°
SSW
206°
SSW
198°
SSW
195°
SSW
200°
SSW
212°
SSW
216°
SW
214°
SW
197°
SSW
170°
S
180°
S
201°
SSW
194°
SSW
182°
S
157°
SSE
149°
SSE
139°
SE
163°
SSE
148°
SSE
161°
SSE
167°
SSE
169°
S
171°
S
172°
S
176°
S
165°
SSE
154°
SSE
182°
S
191°
S
154°
SSE
149°
SSE
165°
SSE
142°
SE
165°
SSE
169°
S
149°
SSE

Daily Forecast

Date High Low Precip. Humidity
Today
Oct 19

Clouds
50 °F
24 °F
2%
60%
Wednesday
Oct 20

Snow
45 °F
36 °F
73%
81%
Thursday
Oct 21

Rain
50 °F
43 °F
59%
87%
Friday
Oct 22

Snow
50 °F
37 °F
100%
94%
Saturday
Oct 23

Snow
39 °F
35 °F
96%
80%
Sunday
Oct 24

Snow
39 °F
34 °F
100%
97%
Monday
Oct 25

Snow
38 °F
32 °F
100%
78%
Tuesday
Oct 26

Snow
40 °F
29 °F
62%
89%
Wednesday
Oct 27

Clouds
55 °F
29 °F
0%
69%
Thursday
Oct 28

Clouds
59 °F
37 °F
0%
62%
Friday
Oct 29

Rain
57 °F
40 °F
85%
54%
Saturday
Oct 30

Rain
50 °F
34 °F
80%
70%
Sunday
Oct 31

Clear
53 °F
32 °F
0%
27%
Monday
Nov 1

Clear
57 °F
36 °F
0%
37%
Tuesday
Nov 2

Clouds
61 °F
37 °F
0%
34%
Wednesday
Nov 3

Clouds
59 °F
40 °F
0%
30%

Temperature 8-14 Day Outlook



Precipitation 8-14 Day Outlook




Quick Links
Eagle Lake News
Eagle Lake Photos
Eagle Lake Videos




About Us
Contact Us
Site Map
Search Site
Advertise With Us
   
Eagle-CA.LakesOnline.com
THE EAGLE LAKE WEBSITE

Copyright 2021, Lakes Online
Privacy    |    Legal